Chehalis, WA

4:28 AM PDT on October 18, 2017 (GMT -0700)
Chehalis-Centralia

Weather History for KCLS - January, 2013

Change the Weather History Date:

Saturday, January 5, 2013

  Actual Average (KTDO) Record (KTDO)
Temperature  
Mean Temperature 39 °F -  
Max Temperature 41 °F 43 °F 59 °F (1984)
Min Temperature 37 °F 31 °F 9 °F (1979)
Degree Days  
Heating Degree Days 26    
Moisture  
Dew Point 35 °F    
Average Humidity 84    
Maximum Humidity 100    
Minimum Humidity 70    
Precipitation  
Precipitation 0.00 in - - ()
Sea Level Pressure  
Sea Level Pressure 30.18 in    
Wind  
Wind Speed 5 mph (South)    
Max Wind Speed 10 mph    
Max Gust Speed -    
Visibility 7 miles    
Events Rain    
Averages and records for this station are not official NWS values.
T = Trace of Precipitation, MM = Missing Value Source: NWS Daily Summary

Daily Weather History Graph

Daily Weather History Graph

Search for Another Location

Airport or City:

Trip Planner

Search our weather history database for the weather conditions in past years. The results will help you decide how hot, cold, wet, or windy it might be!

Date:

Astronomy

Jan. 05, 2013 Rise Set
Actual Time 7:56 AM PST 4:39 PM PST
Civil Twilight 7:21 AM PST 5:14 PM PST
Nautical Twilight 6:43 AM PST 5:52 PM PST
Astronomical Twilight 6:06 AM PST 6:28 PM PST
Moon 12:56 AM PST (1/5) 11:43 AM PST (1/5)
Length of Visible Light 9h 52m
Length of Day
8h 43m
Last Quarter, 43% of the Moon is Illuminated
Jan 5
Last Quarter
Jan 11
New
Jan 18
First Quarter
Jan 26
Full
Feb 3
Last Quarter

Hourly Weather History & Observations

Time (PST) Temp. Windchill Dew Point Humidity Pressure Visibility Wind Dir Wind Speed Gust Speed Precip Events Conditions
12:15 AM 41.0 °F 38.0 °F 41.0 °F 100% 30.18 in 1.2 mi SSE 4.6 mph - N/A   Overcast
12:35 AM 41.0 °F 39.0 °F 41.0 °F 100% 30.18 in 5.0 mi South 3.5 mph - N/A   Overcast
12:55 AM 41.0 °F 38.0 °F 41.0 °F 100% 30.18 in 3.0 mi South 4.6 mph - N/A   Overcast
1:15 AM 41.0 °F 37.1 °F 39.2 °F 93% 30.18 in 3.0 mi South 5.8 mph - N/A   Overcast
1:35 AM 41.0 °F 37.1 °F 39.2 °F 93% 30.18 in 3.0 mi South 5.8 mph - N/A   Overcast
1:55 AM 41.0 °F 37.1 °F 39.2 °F 93% 30.18 in 5.0 mi SSW 5.8 mph - N/A   Overcast
2:15 AM 41.0 °F 39.0 °F 39.2 °F 93% 30.19 in 4.0 mi SSW 3.5 mph - N/A   Overcast
2:35 AM 41.0 °F 39.0 °F 39.2 °F 93% 30.18 in 4.0 mi SSE 3.5 mph - N/A   Overcast
2:55 AM 41.0 °F 37.1 °F 39.2 °F 93% 30.19 in 7.0 mi South 5.8 mph - N/A   Overcast
3:15 AM 39.2 °F 37.0 °F 39.2 °F 100% 30.19 in 7.0 mi SSE 3.5 mph - N/A   Overcast
3:35 AM 39.2 °F - 37.4 °F 93% 30.19 in 8.0 mi Calm Calm - N/A   Overcast
3:55 AM 39.2 °F 35.9 °F 37.4 °F 93% 30.19 in 7.0 mi SSE 4.6 mph - N/A   Overcast
4:35 AM 39.2 °F 37.0 °F 37.4 °F 93% 30.19 in 10.0 mi SSW 3.5 mph - N/A   Overcast
4:55 AM 39.2 °F - 37.4 °F 93% 30.18 in 10.0 mi Calm Calm - N/A   Overcast
5:15 AM 39.2 °F - 37.4 °F 93% 30.18 in 9.0 mi Calm Calm - N/A   Overcast
5:35 AM 39.2 °F 37.0 °F 37.4 °F 93% 30.18 in 5.0 mi South 3.5 mph - N/A   Overcast
5:55 AM 39.2 °F 37.0 °F 35.6 °F 87% 30.17 in 10.0 mi East 3.5 mph - N/A   Overcast
6:15 AM 39.2 °F 34.2 °F 35.6 °F 87% 30.18 in 10.0 mi SW 6.9 mph - N/A   Overcast
6:35 AM 39.2 °F 35.9 °F 35.6 °F 87% 30.19 in 9.0 mi South 4.6 mph - N/A   Overcast
6:55 AM 39.2 °F 35.9 °F 35.6 °F 87% 30.19 in 7.0 mi South 4.6 mph - N/A   Overcast
7:15 AM 39.2 °F 37.0 °F 35.6 °F 87% 30.19 in 5.0 mi South 3.5 mph - N/A   Overcast
7:35 AM 37.4 °F 32.1 °F 33.8 °F 87% 30.19 in 5.0 mi SSE 6.9 mph - N/A   Overcast
7:55 AM 37.4 °F - 32.0 °F 81% 30.19 in 6.0 mi Calm Calm - N/A   Haze
8:15 AM 39.2 °F - 33.8 °F 81% 30.20 in 10.0 mi Calm Calm - N/A   Overcast
8:55 AM 39.2 °F 35.9 °F 32.0 °F 75% 30.20 in 8.0 mi SSW 4.6 mph - N/A   Mostly Cloudy
9:35 AM 39.2 °F 35.9 °F 32.0 °F 75% 30.21 in 4.0 mi South 4.6 mph - N/A   Haze
9:55 AM 39.2 °F 34.2 °F 32.0 °F 75% 30.20 in 4.0 mi SE 6.9 mph - N/A   Haze
10:15 AM 39.2 °F 34.2 °F 32.0 °F 75% 30.21 in 4.0 mi South 6.9 mph - N/A   Haze
10:35 AM 39.2 °F 33.0 °F 32.0 °F 75% 30.21 in 10.0 mi South 9.2 mph - N/A   Clear
10:55 AM 39.2 °F 33.6 °F 32.0 °F 75% 30.21 in 10.0 mi South 8.1 mph - N/A   Clear
11:15 AM 39.2 °F 33.6 °F 32.0 °F 75% 30.20 in 10.0 mi SSW 8.1 mph - N/A   Partly Cloudy
11:35 AM 39.2 °F 34.2 °F 32.0 °F 75% 30.20 in 4.0 mi South 6.9 mph - N/A   Haze
11:55 AM 41.0 °F 36.4 °F 32.0 °F 70% 30.20 in 4.0 mi South 6.9 mph - N/A   Haze
12:15 PM 41.0 °F 36.4 °F 32.0 °F 70% 30.19 in 4.0 mi SSW 6.9 mph - N/A   Haze
12:35 PM 41.0 °F 38.0 °F 32.0 °F 70% 30.17 in 4.0 mi South 4.6 mph - N/A   Haze
12:55 PM 41.0 °F 36.4 °F 33.8 °F 76% 30.16 in 5.0 mi South 6.9 mph - N/A   Haze
1:15 PM 41.0 °F 36.4 °F 33.8 °F 76% 30.16 in 10.0 mi South 6.9 mph - N/A   Clear
1:35 PM 41.0 °F 38.0 °F 33.8 °F 76% 30.16 in 5.0 mi SSW 4.6 mph - N/A   Haze
1:55 PM 41.0 °F 38.0 °F 33.8 °F 76% 30.16 in 10.0 mi South 4.6 mph - N/A   Scattered Clouds
2:15 PM 41.0 °F 38.0 °F 33.8 °F 76% 30.16 in 5.0 mi SSW 4.6 mph - N/A   Haze
2:35 PM 41.0 °F 36.4 °F 33.8 °F 76% 30.16 in 4.0 mi South 6.9 mph - N/A   Haze
2:55 PM 41.0 °F 36.4 °F 33.8 °F 76% 30.16 in 5.0 mi South 6.9 mph - N/A   Haze
3:15 PM 41.0 °F 35.8 °F 35.6 °F 81% 30.15 in 4.0 mi South 8.1 mph - N/A   Haze
3:35 PM 41.0 °F 37.1 °F 33.8 °F 76% 30.15 in 4.0 mi South 5.8 mph - N/A   Haze
3:55 PM 41.0 °F 37.1 °F 33.8 °F 76% 30.16 in 10.0 mi South 5.8 mph - N/A   Clear
4:15 PM 41.0 °F 37.1 °F 35.6 °F 81% 30.15 in 9.0 mi SSE 5.8 mph - N/A   Mostly Cloudy
4:35 PM 41.0 °F 36.4 °F 35.6 °F 81% 30.15 in 5.0 mi South 6.9 mph - N/A   Haze
4:55 PM 41.0 °F 35.8 °F 35.6 °F 81% 30.15 in 7.0 mi South 8.1 mph - N/A   Overcast
5:15 PM 41.0 °F 35.2 °F 35.6 °F 81% 30.15 in 7.0 mi SSE 9.2 mph - N/A   Overcast
5:55 PM 41.0 °F 34.7 °F 33.8 °F 76% 30.15 in 10.0 mi SSE 10.4 mph - N/A   Overcast
6:15 PM 41.0 °F 36.4 °F 33.8 °F 76% 30.15 in 10.0 mi South 6.9 mph - N/A   Overcast
6:35 PM 39.2 °F 35.0 °F 35.6 °F 87% 30.16 in 8.0 mi South 5.8 mph - N/A Rain Light Rain
6:55 PM 39.2 °F 33.0 °F 35.6 °F 87% 30.15 in 10.0 mi South 9.2 mph - N/A Rain Light Rain
7:15 PM 39.2 °F 33.6 °F 35.6 °F 87% 30.15 in 10.0 mi South 8.1 mph - N/A   Overcast
7:35 PM 39.2 °F 33.6 °F 35.6 °F 87% 30.15 in 10.0 mi South 8.1 mph - N/A   Overcast
7:55 PM 39.2 °F 33.0 °F 35.6 °F 87% 30.15 in 10.0 mi South 9.2 mph - N/A   Overcast
8:15 PM 39.2 °F 35.0 °F 35.6 °F 87% 30.16 in 10.0 mi South 5.8 mph - N/A   Overcast
8:35 PM 39.2 °F 35.9 °F 35.6 °F 87% 30.16 in 7.0 mi SSW 4.6 mph - N/A   Overcast
8:55 PM 39.2 °F 34.2 °F 35.6 °F 87% 30.16 in 6.0 mi South 6.9 mph - N/A   Overcast
9:15 PM 39.2 °F 35.0 °F 35.6 °F 87% 30.15 in 10.0 mi South 5.8 mph - N/A   Overcast
9:35 PM 39.2 °F 33.6 °F 35.6 °F 87% 30.17 in 10.0 mi South 8.1 mph - N/A   Overcast
9:55 PM 39.2 °F 33.6 °F 35.6 °F 87% 30.17 in 10.0 mi South 8.1 mph - N/A   Overcast
10:15 PM 39.2 °F 35.0 °F 35.6 °F 87% 30.17 in 5.0 mi SSW 5.8 mph - N/A   Overcast
10:35 PM 39.2 °F 35.0 °F 35.6 °F 87% 30.18 in 5.0 mi SSW 5.8 mph - N/A   Overcast
10:55 PM 39.2 °F 35.0 °F 35.6 °F 87% 30.18 in 7.0 mi South 5.8 mph - N/A   Overcast
11:15 PM 39.2 °F 35.9 °F 35.6 °F 87% 30.19 in 5.0 mi SSW 4.6 mph - N/A   Overcast
11:35 PM 39.2 °F 35.0 °F 35.6 °F 87% 30.19 in 10.0 mi SSW 5.8 mph - N/A   Overcast
11:55 PM 39.2 °F 35.0 °F 35.6 °F 87% 30.19 in 7.0 mi SSW 5.8 mph - N/A   Overcast